Content
SEND FEEDBACK

Daily
Averages
Monthly
Summary
United States of America

ST. LOUIS, MISSOURI


Home > North America > United States > Missouri
Elevation: 535 feet     Latitude: 38 45N     Longitude: 090 22W

WEATHER
 
SELECT A DAY
Number of Records: 196,395;   Date Range: 1/1/95 - 7/29/14
 
SHARE

PRINT THIS DATA

[ ← Previous Day ]
WEATHER ALMANAC - APRIL 5, 2013
[ Next Day → ]
[ °C ]   °F
Weather ElementAverageHighLow
Temperature51.4 °F66 °F (4:54 pm)32 °F (6:54 am)
Dewpoint31 °F36 °F (11:54 am)26.1 °F (1:54 am)
Humidity49.9 %82 % (6:54 am)25 % (4:54 pm)
Barometer30.11 in30.19 in (10:54 am)30.03 in (11:54 pm)
Wind Speed3 mph9.2 mph (10:54 pm)
Weather ElementAverage
Visibility10 mi
Wind DirectionE (86.5 °)

Weather ElementTotal
Precipitation---
Heating Degree Days16 (Base 65)
Averaged from 23 records on April 5, 2013
WEATHER CONDITIONS BREAKOUT
WIND DIRECTION BREAKOUT
WEATHER BY HOUR - APRIL 5, 2013
[ °C ]   °F
Local TimeTemperatureDewpointHumidityBarometerVisibilityWind DirectionWind SpeedGust SpeedPrecipitationEventsConditions
1:54 AM34.0 °F26.1 °F73 %30.09 in10.0 miCalmClear
2:54 AM35.1 °F27.0 °F72 %30.08 in10.0 miCalmClear
3:54 AM34.0 °F27.0 °F75 %30.09 in10.0 miWSW (250°)3.5 mphClear
4:54 AM33.1 °F27.0 °F78 %30.11 in10.0 miCalmClear
5:54 AM33.1 °F27.0 °F78 %30.13 in10.0 miWSW (250°)3.5 mphClear
6:54 AM32.0 °F27.0 °F82 %30.14 in10.0 miCalmClear
7:54 AM37.9 °F32.0 °F79 %30.16 in10.0 miCalmClear
8:54 AM46.9 °F34.0 °F61 %30.17 in10.0 miCalmClear
9:54 AM52.0 °F35.1 °F53 %30.17 in10.0 miENE (60°)3.5 mphClear
10:54 AM55.9 °F35.1 °F45 %30.19 in10.0 miNorth (360°)3.5 mphClear
11:54 AM59.0 °F36.0 °F42 %30.19 in10.0 miNorth (350°)5.8 mphClear
12:54 PM60.1 °F33.1 °F36 %30.16 in10.0 miCalmClear
1:54 PM64.0 °F28.0 °F26 %30.14 in10.0 miCalmScattered Clouds
2:54 PM64.9 °F30.0 °F27 %30.11 in10.0 miNE (40°)5.8 mphScattered Clouds
3:54 PM64.9 °F28.9 °F26 %30.08 in10.0 miENE (60°)5.8 mphScattered Clouds
4:54 PM66.0 °F28.9 °F25 %30.07 in10.0 miCalmScattered Clouds
5:54 PM64.9 °F30.0 °F27 %30.06 in10.0 miENE (70°)3.5 mphClear
6:54 PM60.1 °F34.0 °F38 %30.06 in10.0 miENE (70°)6.9 mphMostly Cloudy
7:54 PM55.0 °F36.0 °F49 %30.06 in10.0 miCalmMostly Cloudy
8:54 PM57.0 °F30.9 °F37 %30.06 in10.0 miESE (110°)3.5 mphClear
9:54 PM57.9 °F32.0 °F37 %30.06 in10.0 miESE (120°)6.9 mphClear
10:54 PM57.0 °F33.1 °F40 %30.04 in10.0 miSE (130°)9.2 mphClear
11:54 PM57.0 °F34.0 °F42 %30.03 in10.0 miESE (120°)8.1 mphClear
Hourly data recorded from KSUS, located miles away from St. Louis, Missouri







STORIES FROM OUR PARTNERS